This demonstration page uses our WeatherBlox Daily Observations layout. Learn more.

Left ArrowRight Arrow

53.62937, 11.41316

Hourly Observations for April 16, 2018

Temp ( °F °C ) Dew Point ( °F °C ) Humidity (%) Winds ( mph kmh ) Pressure ( in mb ) Visibility ( mi km ) Precip ( " mm )
6:50 am 06:50 Cloudy with Fog 41 5 41 5 100 100 NE 2 4 29.88 1012 1 1 N/A
7:20 am 07:20 Cloudy with Fog 41 5 41 5 100 100 VRB 2 4 29.91 1013 1 1 N/A
7:50 am 07:50 Cloudy with Fog 43 6 43 6 100 100 N 2 4 29.91 1013 0 1 N/A
8:20 am 08:20 Cloudy with Mist and Fog 43 6 43 6 100 100 VRB 2 4 29.91 1013 1 1 N/A
8:50 am 08:50 Partly Cloudy with Mist and Fog 45 7 45 7 100 100 N 3 6 29.91 1013 1 1 N/A
9:20 am 09:20 Partly Cloudy with Mist and Fog 45 7 45 7 100 100 ENE 3 6 29.91 1013 1 2 N/A
9:50 am 09:50 Partly Cloudy with Mist and Fog 46 8 46 8 100 100 ENE 5 7 29.91 1013 2 4 N/A
10:20 am 10:20 Mostly Sunny 50 10 50 10 100 100 ENE 3 6 29.94 1014 4 6 N/A
10:50 am 10:50 Mostly Sunny 52 11 50 10 94 94 ENE 3 6 29.94 1014 5 8 N/A
11:20 am 11:20 Mostly Sunny 54 12 48 9 82 82 E 5 7 29.94 1014 4 7 N/A
11:50 am 11:50 Mostly Sunny 55 13 50 10 82 82 E 5 7 29.94 1014 6 9 N/A
12:20 pm 12:20 Mostly Sunny 55 13 50 10 82 82 E 5 7 29.94 1014 6 9 N/A
12:50 pm 12:50 Mostly Sunny 57 14 50 10 77 77 VRB 3 6 29.94 1014 6 9 N/A
1:20 pm 13:20 Mostly Sunny 59 15 50 10 72 72 VRB 2 4 29.94 1014 6 9 N/A
1:50 pm 13:50 Mostly Sunny 59 15 52 11 77 77 VRB 2 4 29.94 1014 6 9 N/A
2:20 pm 14:20 Mostly Sunny 61 16 50 10 68 68 VRB 2 4 29.94 1014 7 11 N/A
2:50 pm 14:50 Mostly Sunny 63 17 52 11 68 68 VRB 1 2 29.94 1014 7 11 N/A
3:20 pm 15:20 Mostly Sunny 63 17 52 11 68 68 VRB 1 2 29.94 1014 7 11 N/A
3:50 pm 15:50 Mostly Sunny 63 17 50 10 64 64 E 5 7 29.94 1014 7 11 N/A
4:20 pm 16:20 Mostly Sunny 64 18 52 11 64 64 ESE 5 7 29.94 1014 7 11 N/A
4:50 pm 16:50 Mostly Sunny 63 17 52 11 68 68 E 5 7 29.94 1014 7 11 N/A
5:20 pm 17:20 Mostly Cloudy with Showers Nearby 61 16 50 10 68 68 E 3 6 29.97 1015 30 48 N/A
5:50 pm 17:50 Mostly Cloudy with Showers Nearby 61 16 50 10 68 68 VRB 2 4 29.97 1015 30 48 N/A
6:20 pm 18:20 Mostly Cloudy with Light Showers 57 14 57 14 100 100 WSW 6 9 30.00 1016 3 5 N/A
6:50 pm 18:50 Mostly Cloudy with Light Showers 55 13 55 13 100 100 WSW 3 6 30.00 1016 30 48 N/A
7:20 pm 19:20 Mostly Sunny 55 13 52 11 88 88 NNW 5 7 30.00 1016 6 9 N/A
7:50 pm 19:50 Mostly Cloudy with Light Rain 55 13 54 12 94 94 NW 2 4 30.00 1016 30 48 N/A
8:20 pm 20:20 Mostly Clear 54 12 54 12 100 100 VRB 2 4 30.03 1017 4 6 N/A
8:50 pm 20:50 Mostly Cloudy 54 12 54 12 100 100 W 3 6 30.03 1017 5 8 N/A

Powered by AerisWeather